User: anonymous   Login
Location: Unspecified
(0.0000°N, 0.0000°E)
Time: 02:45:00
(UTC+02:00)
Language:

Resurs 01 Rocket - Orbit

View from above orbital plane
View from above orbital plane
View from above satellite
View from above satellite

Ground track
Ground track

The orbit data is extracted from the following two-line orbital elements,

1 23343U 94074B   15109.16476020  .00000671  00000-0  10401-3 0  9994
2 23343 098.2218 123.5644 0008403 085.1874 340.4729 14.76482377100245
Epoch (UTC): 19 April 2015 03:57:15
Eccentricity: 0.0008403
inclination: 98.2218°
perigee height: 634 km
apogee height: 646 km
right ascension of ascending node: 123.5644°
argument of perigee: 85.1874°
revolutions per day: 14.76482377
mean anomaly at epoch: 340.4729°
orbit number at epoch: 10024

The dashed part of the orbit path shows where the satellite is in the earth's shadow,  

DLR